Tracking 19245 objects as of 18-Aug-2018
HD Live streaming from Space Station
objects crossing your sky now

COSMOS 681

Track COSMOS 681 now!
10-day predictions
COSMOS 681 is classified as:


NORAD ID: 7439
Int'l Code: 1974-072E
Perigee: 1,472.4 km
Apogee: 1,479.0 km
Inclination: 74.0 °
Period: 115.3 minutes
Semi major axis: 7846 km
RCS: 0.6868 m2 (medium)
Launch date: September 19, 1974
Source: Commonwealth of Independent States (former USSR) (CIS)
Launch site: PLESETSK MISSILE AND SPACE COMPLEX (PKMTR)
aabbcc
Your satellite tracking list
Your tracking list is empty




NASA's NSSDC Master Catalog

Two Line Element Set (TLE):
1  7439U 74072E   18228.96535584 -.00000014 +00000-0 +94099-5 0  9991
2  7439 074.0331 209.5978 0004225 358.5775 060.7459 12.49029232002069
Source of the keplerian elements: AFSPC